sat.trackr.live / text

‹ back to catalog

STARLINK-34815

NORAD 65099 · 2025-167X

PAYLOAD ACTIVE UNKNOWN

§ Identity

Operator
Country
US
Launch date
2025-08-04
Launch site
AFETR
Launch vehicle
Mass (kg)
RCS (m²)

Purposes: comms

External: N2YO · Heavens-Above · Gunter

§ Orbital elements

Epoch: 2026-05-25T01:17:02.184000Z

Period
93.85 min
Inclination
53.1589°
Eccentricity
0.0000945
Mean motion
15.34400640 rev/d
Perigee alt
462.1 km
Apogee alt
463.3 km
Semi-major
6,840.8 km
B*
3.6380e-4
RAAN
31.0920°
Arg perigee
118.5713°
Mean anomaly
241.5384°
Rev number
4,518

§ Raw data

STARLINK-348151 65099U 25167X   26145.05349750  .00011935  00000+0  36380-3 0  99922 65099  53.1589  31.0920 0000945 118.5713 241.5384 15.34400640 45183

JSON: /api/v1/satellites/65099 · /tle

For live sub-satellite position, see the globe view (requires WebGL).

§ Visibility from observer

Set your observer location to see the next 7 days of passes ≥ 10°. The values pass through the URL so the page stays shareable.

No JS? Fill the form by hand. The geolocation button needs JavaScript.